KD8DNS Weather Reports


time (UTC)temp
C
wind
direction
speed
KPH
gust
KPH
rain 1hr
cm
rain 24hr
cm
rain mn
cm
humidity
%
barometer
mb
20260508181002 -17 356 6.4 17.7 0.00 0.00 0.00 1014.7
20260508180458 -17 345 9.7 12.9 0.00 0.00 0.00 1015.0
20260508175954 -17 3 4.8 14.5 0.00 0.00 0.00 1015.3
20260508175450 -17 348 4.8 20.9 0.00 0.00 0.00 1015.3
20260508174948 -17 294 12.9 20.9 0.00 0.00 0.00 1015.2
20260508174446 -17 280 11.3 14.5 0.00 0.00 0.00 1015.4
20260508173942 -17 25 9.7 14.5 0.00 0.00 0.00 1015.3
20260508173440 -17 355 4.8 12.9 0.00 0.00 0.00 1015.5
20260508172935 -17 314 6.4 16.1 0.00 0.00 0.00 1015.7
20260508172433 -17 325 4.8 11.3 0.00 0.00 0.00 1015.7
20260508171929 -17 340 8.0 22.5 0.00 0.00 0.00 1015.9
20260508171425 -17 335 4.8 17.7 0.00 0.00 0.00 1015.7
20260508170922 -17 342 8.0 16.1 0.00 0.00 0.00 1016.0
20260508170420 -17 290 6.4 16.1 0.00 0.00 0.00 1015.9
20260508165916 -17 306 8.0 12.9 0.00 0.00 0.00 1016.0
20260508165414 -17 17 8.0 16.1 0.00 0.00 0.00 1015.9
20260508164909 -17 356 4.8 14.5 0.00 0.00 0.00 1016.1
20260508164407 -17 315 11.3 16.1 0.00 0.00 0.00 1016.3
20260508163904 -17 4 8.0 16.1 0.00 0.00 0.00 1016.1
20260508163402 -17 357 6.4 11.3 0.00 0.00 0.00 1016.3
20260508162857 -17 332 8.0 14.5 0.00 0.00 0.00 1016.3
20260508162355 -17 325 8.0 11.3 0.00 0.00 0.00 1016.2
20260508161852 -17 14 11.3 16.1 0.00 0.00 0.00 1016.5
20260508161349 -17 313 12.9 22.5 0.00 0.00 0.00 1016.5
20260508160846 -17 349 14.5 20.9 0.00 0.00 0.00 1016.5
20260508160345 -17 18 6.4 14.5 0.00 0.00 0.00 1016.5
20260508155840 -17 352 8.0 11.3 0.00 0.00 0.00 1016.7
20260508155338 -17 291 4.8 12.9 0.00 0.00 0.00 1016.8
20260508154835 -17 5 6.4 12.9 0.00 0.00 0.00 1016.9
20260508154332 -17 294 6.4 14.5 0.00 0.00 0.00 1016.7
20260508153829 -17 297 8.0 12.9 0.00 0.00 0.00 1017.1
20260508153326 -17 352 8.0 14.5 0.00 0.00 0.00 1017.3
20260508152822 -17 324 11.3 14.5 0.00 0.00 0.00 1017.0
20260508152319 -17 307 11.3 16.1 0.00 0.00 0.00 1017.1
20260508151815 -17 301 11.3 17.7 0.00 0.00 0.00 1017.3
20260508151312 -17 285 8.0 14.5 0.00 0.00 0.00 1017.3
20260508150808 -17 335 4.8 11.3 0.00 0.00 0.00 1017.3
20260508150305 -17 320 8.0 24.1 0.00 0.00 0.00 1017.4
20260508145802 -17 328 6.4 20.9 0.00 0.00 0.00 1017.3
20260508145257 -17 350 6.4 9.7 0.00 0.00 0.00 1017.4
20260508144754 -17 314 3.2 11.3 0.00 0.00 0.00 1017.6
20260508144252 -17 316 6.4 12.9 0.00 0.00 0.00 1017.7
20260508143749 -17 345 6.4 16.1 0.00 0.00 0.00 1017.4
20260508143247 -17 306 4.8 11.3 0.00 0.00 0.00 1017.6
20260508142743 -17 312 4.8 17.7 0.00 0.00 0.00 1017.7
20260508142240 -17 319 1.6 4.8 0.00 0.00 0.00 1017.5
20260508141736 -17 298 3.2 8.0 0.00 0.00 0.00 1017.6
20260508141234 -17 327 4.8 8.0 0.00 0.00 0.00 1017.6
20260508140731 -17 334 3.2 9.7 0.00 0.00 0.00 1017.6
20260508140228 -17 1 3.2 11.3 0.00 0.00 0.00 1017.7
20260508135724 -17 345 3.2 9.7 0.00 0.00 0.00 1018.0
20260508135220 -17 9 0.0 9.7 0.00 0.00 0.00 1017.6
20260508134715 -17 316 4.8 9.7 0.00 0.00 0.00 1017.9
20260508134213 -17 358 1.6 3.2 0.00 0.00 0.00 1017.8
20260508133710 -17 280 6.4 9.7 0.00 0.00 0.00 1017.8
20260508133208 -17 357 3.2 8.0 0.00 0.00 0.00 1017.8
20260508132705 -17 307 4.8 9.7 0.00 0.00 0.00 1017.5
20260508132202 -17 329 1.6 9.7 0.00 0.00 0.00 1017.9
20260508131657 -17 347 0.0 4.8 0.00 0.00 0.00 1017.8
20260508131154 -17 344 1.6 4.8 0.00 0.00 0.00 1017.8
20260508130651 -17 333 3.2 8.0 0.00 0.00 0.00 1018.0
20260508130148 -17 341 3.2 11.3 0.00 0.00 0.00 1017.9
20260508125643 -17 353 4.8 8.0 0.00 0.00 0.00 1017.8
20260508125140 -17 238 6.4 9.7 0.00 0.00 0.00 1017.9
20260508124638 -17 323 1.6 11.3 0.00 0.00 0.00 1017.8
20260508124135 -17 351 3.2 8.0 0.00 0.00 0.00 1017.9
20260508123634 -17 280 3.2 11.3 0.00 0.00 0.00 1018.0
20260508123131 -17 306 4.8 11.3 0.00 0.00 0.00 1017.6
20260508122627 -17 357 3.2 8.0 0.00 0.00 0.00 1017.8
20260508122124 -17 307 4.8 8.0 0.00 0.00 0.00 1017.7
20260508121622 -17 314 3.2 4.8 0.00 0.00 0.00 1017.7
20260508121120 -17 358 3.2 4.8 0.00 0.00 0.00 1017.8
20260508120617 -17 354 0.0 8.0 0.00 0.00 0.00 1017.6
20260508120116 -17 325 4.8 8.0 0.00 0.00 0.00 1017.8
20260508115613 -17 359 0.0 3.2 0.00 0.00 0.00 1017.7
20260508115109 -17 356 1.6 4.8 0.00 0.00 0.00 1017.5
20260508114607 -17 3 1.6 4.8 0.00 0.00 0.00 1017.8
20260508114102 -17 0 1.6 3.2 0.00 0.00 0.00 1017.7
20260508113600 -17 0 0.0 1.6 0.00 0.00 0.00 1017.7
20260508113058 -17 358 1.6 3.2 0.00 0.00 0.00 1017.7
20260508112554 -17 317 0.0 3.2 0.00 0.00 0.00 1017.5
20260508112051 -17 328 0.0 3.2 0.00 0.00 0.00 1017.1
20260508111548 -17 4 1.6 1.6 0.00 0.00 0.00 1017.3
20260508111045 -17 342 1.6 1.6 0.00 0.00 0.00 1017.1
20260508110543 -17 348 0.0 1.6 0.00 0.00 0.00 1017.3
20260508110038 -17 3 0.0 0.0 0.00 0.00 0.00 1017.3
20260508105533 -17 7 0.0 0.0 0.00 0.00 0.00 1017.3
20260508105031 -17 1 0.0 1.6 0.00 0.00 0.00 1017.1
20260508104529 -17 7 0.0 0.0 0.00 0.00 0.00 1017.0
20260508104025 -17 15 0.0 0.0 0.00 0.00 0.00 1016.9
20260508103522 -17 7 0.0 0.0 0.00 0.00 0.00 1017.3
20260508103020 -17 4 0.0 1.6 0.00 0.00 0.00 1016.9
20260508102517 -17 5 0.0 1.6 0.00 0.00 0.00 1017.1
20260508102015 -17 4 0.0 0.0 0.00 0.00 0.00 1016.9
20260508101512 -17 3 0.0 0.0 0.00 0.00 0.00 1017.1
20260508101009 -17 7 0.0 0.0 0.00 0.00 0.00 1017.0
20260508100507 -17 6 0.0 0.0 0.00 0.00 0.00 1016.9
20260508100004 -17 4 0.0 0.0 0.00 0.00 0.00 1016.9
20260508095501 -17 4 0.0 0.0 0.00 0.00 0.00 1017.0
20260508094957 -17 5 0.0 0.0 0.00 0.00 0.00 1017.1
20260508094454 -17 4 0.0 0.0 0.00 0.00 0.00 1017.0
20260508093951 -17 3 0.0 0.0 0.00 0.00 0.00 1017.1
20260508093448 -17 6 0.0 0.0 0.00 0.00 0.00 1017.0
20260508092946 -17 7 0.0 0.0 0.00 0.00 0.00 1016.9
20260508092443 -17 6 0.0 0.0 0.00 0.00 0.00 1017.1
20260508091942 -17 7 0.0 0.0 0.00 0.00 0.00 1016.7
20260508091438 -17 6 0.0 0.0 0.00 0.00 0.00 1017.1
20260508090935 -17 1 0.0 0.0 0.00 0.00 0.00 1016.9
20260508090434 -17 1 0.0 0.0 0.00 0.00 0.00 1016.9
20260508085929 -17 2 0.0 0.0 0.00 0.00 0.00 1016.8
20260508085427 -17 2 0.0 0.0 0.00 0.00 0.00 1016.8
20260508084923 -17 2 0.0 0.0 0.00 0.00 0.00 1016.8
20260508084419 -17 4 0.0 0.0 0.00 0.00 0.00 1016.6
20260508083918 -17 4 0.0 0.0 0.00 0.00 0.00 1016.7
20260508083415 -17 350 1.6 1.6 0.00 0.00 0.00 1016.6
20260508082909 -17 4 0.0 0.0 0.00 0.00 0.00 1016.9
20260508082407 -17 5 0.0 0.0 0.00 0.00 0.00 1016.8
20260508081904 -17 2 0.0 0.0 0.00 0.00 0.00 1016.6
20260508081401 -17 2 0.0 0.0 0.00 0.00 0.00 1016.6
20260508080857 -17 3 0.0 0.0 0.00 0.00 0.00 1016.7
20260508080356 -17 3 0.0 0.0 0.00 0.00 0.00 1016.5
20260508075852 -17 3 0.0 0.0 0.00 0.00 0.00 1016.7
20260508075349 -17 4 0.0 0.0 0.00 0.00 0.00 1016.6
20260508074847 -17 4 0.0 0.0 0.00 0.00 0.00 1016.7
20260508074343 -17 3 0.0 0.0 0.00 0.00 0.00 1016.6
20260508073840 -17 3 0.0 1.6 0.00 0.00 0.00 1016.6
20260508073338 -17 6 0.0 1.6 0.00 0.00 0.00 1016.7
20260508072835 -17 2 0.0 0.0 0.00 0.00 0.00 1016.5
20260508072331 -17 1 0.0 1.6 0.00 0.00 0.00 1016.7
20260508071829 -17 2 0.0 0.0 0.00 0.00 0.00 1016.6
20260508071327 -17 3 0.0 0.0 0.00 0.00 0.00 1016.7
20260508070824 -17 3 0.0 0.0 0.00 0.00 0.00 1016.7
20260508070322 -17 3 0.0 0.0 0.00 0.00 0.00 1016.8
20260508065819 -17 2 0.0 0.0 0.00 0.00 0.00 1016.9
20260508065317 -17 3 0.0 0.0 0.00 0.00 0.00 1016.8
20260508064815 -17 358 0.0 1.6 0.00 0.00 0.00 1017.3
20260508064313 -17 4 0.0 0.0 0.00 0.00 0.00 1017.1
20260508063810 -17 6 0.0 0.0 0.00 0.00 0.00 1017.3
20260508063308 -17 8 0.0 0.0 0.00 0.00 0.00 1017.1
20260508062805 -17 3 0.0 0.0 0.00 0.00 0.00 1017.3
20260508062306 -17 3 0.0 0.0 0.00 0.00 0.00 1017.1
20260508061759 -17 4 0.0 0.0 0.00 0.00 0.00 1017.0
20260508061256 -17 4 0.0 0.0 0.00 0.00 0.00 1017.0
20260508060753 -17 4 0.0 0.0 0.00 0.00 0.00 1016.9
20260508060251 -17 4 0.0 0.0 0.00 0.00 0.00 1017.3
20260508055746 -17 4 0.0 0.0 0.00 0.00 0.00 1017.0
20260508055243 -17 4 0.0 0.0 0.00 0.00 0.00 1017.4
20260508054739 -17 4 0.0 0.0 0.00 0.00 0.00 1017.1
20260508054238 -17 4 0.0 0.0 0.00 0.00 0.00 1017.0
20260508053734 -17 4 0.0 0.0 0.00 0.00 0.00 1017.3
20260508053231 -17 4 0.0 0.0 0.00 0.00 0.00 1017.1
20260508052729 -17 5 0.0 0.0 0.00 0.00 0.00 1017.0
20260508052226 -17 4 0.0 0.0 0.00 0.00 0.00 1017.3
20260508051722 -17 4 0.0 0.0 0.00 0.00 0.00 1017.4
20260508051217 -17 8 0.0 0.0 0.00 0.00 0.00 1017.3
20260508050714 -17 11 0.0 0.0 0.00 0.00 0.00 1017.4
20260508050212 -17 9 0.0 0.0 0.00 0.00 0.00 1017.4
20260508045706 -17 4 0.0 0.0 0.00 0.00 0.00 1017.0
20260508045205 -17 4 0.0 0.0 0.00 0.00 0.00 1017.1
20260508044702 -17 5 0.0 0.0 0.00 0.00 0.00 1017.0
20260508044158 -17 4 0.0 0.0 0.00 0.00 0.00 1017.3
20260508043654 -17 3 0.0 0.0 0.00 0.00 0.00 1017.4
20260508043152 -17 3 0.0 0.0 0.00 0.00 0.00 1017.4
20260508042648 -17 5 0.0 0.0 0.00 0.00 0.00 1017.5
20260508042146 -17 5 0.0 0.0 0.00 0.00 0.00 1017.4
20260508041642 -17 5 0.0 0.0 0.00 0.00 0.00 1017.4
20260508041139 -17 5 0.0 0.0 0.00 0.00 0.00 1017.3
20260508040636 -17 5 0.0 0.0 0.00 0.00 0.00 1017.0
20260508040133 -17 4 0.0 0.0 0.00 0.00 0.00 1017.3
20260508035630 -17 1 0.0 1.6 0.00 0.00 0.00 1017.0
20260508035128 -17 4 0.0 0.0 0.00 0.00 0.00 1017.3
20260508034625 -17 2 0.0 0.0 0.00 0.00 0.00 1017.1
20260508034121 -17 2 0.0 0.0 0.00 0.00 0.00 1017.0
20260508033619 -17 2 0.0 0.0 0.00 0.00 0.00 1017.0
20260508033117 -17 2 0.0 0.0 0.00 0.00 0.00 1017.4
20260508032613 -17 4 0.0 0.0 0.00 0.00 0.00 1017.1
20260508032111 -17 5 0.0 0.0 0.00 0.00 0.00 1017.0
20260508031608 -17 2 0.0 0.0 0.00 0.00 0.00 1017.0
20260508031104 -17 2 0.0 0.0 0.00 0.00 0.00 1017.3
20260508030600 -17 2 0.0 0.0 0.00 0.00 0.00 1017.1
20260508030058 -17 2 0.0 0.0 0.00 0.00 0.00 1017.4
20260508025554 -17 2 0.0 0.0 0.00 0.00 0.00 1017.1
20260508025051 -17 2 0.0 0.0 0.00 0.00 0.00 1017.4
20260508024547 -17 2 0.0 0.0 0.00 0.00 0.00 1017.1
20260508024045 -17 1 0.0 0.0 0.00 0.00 0.00 1017.4
20260508023541 -17 0 0.0 0.0 0.00 0.00 0.00 1017.5
20260508023038 -17 358 0.0 0.0 0.00 0.00 0.00 1017.1
20260508022534 -17 358 0.0 0.0 0.00 0.00 0.00 1017.4
20260508022031 -17 358 0.0 1.6 0.00 0.00 0.00 1017.5
20260508021527 -17 358 0.0 0.0 0.00 0.00 0.00 1017.5
20260508021023 -17 358 0.0 0.0 0.00 0.00 0.00 1017.1
20260508020521 -17 357 1.6 1.6 0.00 0.00 0.00 1017.3
20260508020018 -17 358 0.0 0.0 0.00 0.00 0.00 1017.4
20260508015516 -17 358 0.0 0.0 0.00 0.00 0.00 1017.4
20260508015012 -17 358 0.0 0.0 0.00 0.00 0.00 1017.1
20260508014508 -17 358 0.0 0.0 0.00 0.00 0.00 1017.0
20260508014004 -17 358 0.0 0.0 0.00 0.00 0.00 1017.0
20260508013455 -17 358 0.0 0.0 0.00 0.00 0.00 1017.1
20260508012953 -17 357 0.0 1.6 0.00 0.00 0.00 1017.0
20260508012450 -17 358 0.0 1.6 0.00 0.00 0.00 1016.9
20260508011947 -17 358 0.0 0.0 0.00 0.00 0.00 1017.1
20260508011445 -17 358 0.0 1.6 0.00 0.00 0.00 1016.9
20260508010942 -17 358 0.0 0.0 0.00 0.00 0.00 1016.9
20260508010439 -17 358 0.0 1.6 0.00 0.00 0.00 1016.8
20260508005936 -17 358 0.0 0.0 0.00 0.00 0.00 1016.7
20260508005433 -17 358 0.0 0.0 0.00 0.00 0.00 1016.9
20260508004929 -17 358 0.0 1.6 0.00 0.00 0.00 1016.8
20260508004426 -17 358 0.0 1.6 0.00 0.00 0.00 1017.0
20260508003922 -17 358 0.0 0.0 0.00 0.00 0.00 1016.6
20260508003419 -17 358 0.0 0.0 0.00 0.00 0.00 1016.6
20260508002916 -17 358 0.0 0.0 0.00 0.00 0.00 1016.7
20260508002413 -17 358 0.0 1.6 0.00 0.00 0.00 1016.6
20260508001909 -17 29 0.0 3.2 0.00 0.00 0.00 1016.6
20260508001405 -17 3 0.0 3.2 0.00 0.00 0.00 1016.3
20260508000902 -17 31 0.0 1.6 0.00 0.00 0.00 1016.4
20260508000358 -17 354 1.6 1.6 0.00 0.00 0.00 1016.4
20260507235854 -17 349 0.0 3.2 0.00 0.00 0.00 1016.3
20260507235352 -17 22 1.6 4.8 0.00 0.00 0.00 1016.3
20260507234849 -17 66 1.6 3.2 0.00 0.00 0.00 1016.5
20260507234346 -17 351 1.6 4.8 0.00 0.00 0.00 1016.1
20260507233842 -17 350 3.2 4.8 0.00 0.00 0.00 1016.2
20260507233339 -17 349 3.2 4.8 0.00 0.00 0.00 1016.2
20260507232838 -17 1 0.0 4.8 0.00 0.00 0.00 1016.3
20260507232334 -17 7 0.0 1.6 0.00 0.00 0.00 1016.3
20260507231832 -17 355 1.6 9.7 0.00 0.00 0.00 1016.1
20260507231328 -17 333 4.8 8.0 0.00 0.00 0.00 1016.3
20260507230824 -17 0 3.2 11.3 0.00 0.00 0.00 1016.3
20260507230322 -17 59 3.2 4.8 0.00 0.00 0.00 1016.4
20260507225822 -17 13 3.2 8.0 0.00 0.00 0.00 1016.2
20260507225318 -17 351 4.8 9.7 0.00 0.00 0.00 1016.3
20260507224814 -17 42 1.6 4.8 0.00 0.00 0.00 1016.1
20260507224311 -17 28 4.8 4.8 0.00 0.00 0.00 1016.4
20260507223807 -17 34 1.6 4.8 0.00 0.00 0.00 1016.4
20260507223303 -17 349 4.8 9.7 0.00 0.00 0.00 1016.4
20260507222801 -17 339 8.0 11.3 0.00 0.00 0.00 1016.3
20260507222257 -17 59 1.6 3.2 0.00 0.00 0.00 1016.6
20260507221754 -17 33 4.8 8.0 0.00 0.00 0.00 1016.5
20260507221250 -17 28 4.8 8.0 0.00 0.00 0.00 1016.6
20260507220746 -17 10 3.2 12.9 0.00 0.00 0.00 1016.4
20260507220245 -17 330 8.0 12.9 0.00 0.00 0.00 1016.5
20260507215741 -17 338 4.8 11.3 0.00 0.00 0.00 1016.4
20260507215239 -17 20 4.8 12.9 0.00 0.00 0.00 1016.7
20260507214735 -17 36 1.6 9.7 0.00 0.00 0.00 1016.3
20260507214233 -17 90 3.2 9.7 0.00 0.00 0.00 1016.3
20260507213728 -17 343 4.8 12.9 0.00 0.00 0.00 1016.3
20260507213225 -17 106 3.2 12.9 0.00 0.00 0.00 1016.3
20260507212721 -17 60 4.8 9.7 0.00 0.00 0.00 1016.1
20260507212218 -17 43 1.6 12.9 0.00 0.00 0.00 1016.3
20260507211715 -17 27 1.6 9.7 0.00 0.00 0.00 1016.0
20260507211210 -17 71 3.2 9.7 0.00 0.00 0.00 1016.3
20260507210708 -17 358 6.4 9.7 0.00 0.00 0.00 1016.2
20260507210205 -17 338 3.2 4.8 0.00 0.00 0.00 1016.2
20260507205701 -17 58 6.4 11.3 0.00 0.00 0.00 1016.2
20260507205158 -17 137 8.0 17.7 0.00 0.00 0.00 1016.2
20260507204654 -17 355 1.6 4.8 0.00 0.00 0.00 1016.0
20260507204152 -17 339 8.0 9.7 0.00 0.00 0.00 1016.1
20260507203650 -17 288 3.2 4.8 0.00 0.00 0.00 1016.0
20260507203147 -17 309 11.3 12.9 0.00 0.00 0.00 1016.0
20260507202642 -17 326 6.4 9.7 0.00 0.00 0.00 1015.9
20260507202139 -17 344 6.4 14.5 0.00 0.00 0.00 1016.1
20260507201634 -17 331 6.4 11.3 0.00 0.00 0.00 1015.9
20260507201131 -17 2 6.4 11.3 0.00 0.00 0.00 1016.0
20260507200627 -17 8 3.2 11.3 0.00 0.00 0.00 1016.1
20260507200123 -17 44 8.0 11.3 0.00 0.00 0.00 1016.1
20260507195620 -17 43 8.0 11.3 0.00 0.00 0.00 1016.1
20260507195118 -17 350 4.8 9.7 0.00 0.00 0.00 1016.3
20260507194614 -17 314 3.2 9.7 0.00 0.00 0.00 1016.2
20260507194109 -17 324 4.8 9.7 0.00 0.00 0.00 1016.3
20260507193607 -17 41 3.2 8.0 0.00 0.00 0.00 1016.4
20260507193104 -17 327 3.2 14.5 0.00 0.00 0.00 1016.5
20260507192600 -17 38 6.4 12.9 0.00 0.00 0.00 1016.4
20260507192057 -17 16 6.4 14.5 0.00 0.00 0.00 1016.5
20260507191552 -17 16 6.4 14.5 0.00 0.00 0.00 1016.5
20260507191050 -17 354 8.0 12.9 0.00 0.00 0.00 1016.3
20260507190547 -17 347 8.0 17.7 0.00 0.00 0.00 1016.5
20260507190046 -17 87 8.0 14.5 0.00 0.00 0.00 1016.2
20260507185544 -17 341 1.6 8.0 0.00 0.00 0.00 1016.6
20260507185040 -17 1 1.6 16.1 0.00 0.00 0.00 1016.4
20260507184538 -17 15 8.0 9.7 0.00 0.00 0.00 1016.5
20260507184036 -17 75 4.8 9.7 0.00 0.00 0.00 1016.2
20260507183531 -17 35 6.4 17.7 0.00 0.00 0.00 1016.4
20260507183029 -17 359 1.6 11.3 0.00 0.00 0.00 1016.5
20260507182525 -17 348 3.2 8.0 0.00 0.00 0.00 1016.5
20260507182021 -17 146 3.2 9.7 0.00 0.00 0.00 1016.6
20260507181518 -17 331 9.7 16.1 0.00 0.00 0.00 1016.5